Weather History for Banff, AB

Change the Weather History Date:

Thursday, November 24, 2011

  Actual Average Record
Temperature  
Mean Temperature 24 °F -  
Max Temperature 31 °F - - ()
Min Temperature 18 °F - - ()
Degree Days  
Heating Degree Days 40    
Moisture  
Dew Point 18 °F    
Average Humidity 74    
Maximum Humidity 91    
Minimum Humidity 52    
Precipitation  
Precipitation 0.39 in - - ()
Sea Level Pressure  
Sea Level Pressure 29.65 in    
Wind  
Wind Speed 5 mph ()    
Max Wind Speed 9 mph    
Max Gust Speed -    
T = Trace of Precipitation, MM = Missing Value Source: Averaged Metar Reports

Daily Weather History Graph

Daily Weather History Graph

Search for Another Location

Airport:

Trip Planner

Search our weather history database for the weather conditions in past years. The results will help you decide how hot, cold, wet, or windy it might be!

Date:

Astronomy

Nov. 24, 2011 Rise Set
Actual Time 8:13 AM MST 4:43 PM MST
Civil Twilight 7:35 AM MST 5:21 PM MST
Nautical Twilight 6:54 AM MST 6:02 PM MST
Astronomical Twilight 6:14 AM MST 6:42 PM MST
Moon 7:39 AM MST (11/24) 4:13 PM MST (11/24)
Length of Visible Light 9h 45m
Length of Day
8h 30m
Waning Crescent, 0% of the Moon is Illuminated
Nov 24
Waning Crescent
Nov 24
New
Dec 2
First Quarter
Dec 10
Full
Dec 17
Last Quarter

Hourly Weather History & Observations

Time (MST) Temp. Windchill Dew Point Humidity Pressure Visibility Wind Dir Wind Speed Gust Speed Precip Events Conditions
12:00 AM 31.3 °F 25.6 °F 28.9 °F 91% 29.51 in - WSW 5.8 mph - N/A   Unknown
1:00 AM 30.0 °F 25.2 °F 27.7 °F 91% 29.54 in - SW 4.6 mph - N/A   Unknown
3:00 AM 26.8 °F 20.2 °F 23.9 °F 89% 29.61 in - SW 5.8 mph - N/A   Unknown
4:00 AM 25.2 °F 19.5 °F 22.5 °F 89% 29.64 in - WSW 4.6 mph - N/A   Unknown
5:00 AM 24.3 °F 16.3 °F 20.5 °F 85% 29.68 in - SW 6.9 mph - N/A   Unknown
7:00 AM 21.0 °F 16.2 °F 17.4 °F 86% 29.73 in - WSW 3.5 mph - N/A   Unknown
8:00 AM 19.4 °F 14.3 °F 16.5 °F 89% 29.75 in - SW 3.5 mph - N/A   Unknown
9:00 AM 18.9 °F 10.8 °F 15.6 °F 87% 29.75 in - SW 5.8 mph - N/A   Unknown
10:00 AM 19.9 °F 12.1 °F 15.8 °F 84% 29.75 in - SW 5.8 mph - N/A   Unknown
11:00 AM 22.8 °F 14.5 °F 15.8 °F 74% 29.74 in - West 6.9 mph - N/A   Unknown
12:00 PM 24.1 °F 18.2 °F 17.6 °F 76% 29.72 in - WSW 4.6 mph - N/A   Unknown
1:00 PM 27.3 °F 18.4 °F 15.6 °F 61% 29.69 in - SSW 9.2 mph - N/A   Unknown
2:00 PM 27.9 °F 19.1 °F 16.0 °F 61% 29.69 in - SW 9.2 mph - N/A   Unknown
3:00 PM 28.9 °F 21.1 °F 13.3 °F 52% 29.66 in - WSW 8.1 mph - N/A   Unknown
4:00 PM 27.3 °F 19.9 °F 15.1 °F 60% 29.65 in - SW 6.9 mph - N/A   Unknown
5:00 PM 27.3 °F 19.9 °F 12.9 °F 55% 29.64 in - WSW 6.9 mph - N/A   Unknown
8:00 PM 27.0 °F 18.7 °F 14.9 °F 60% 29.59 in - SW 8.1 mph - N/A   Unknown
9:00 PM 27.7 °F 19.6 °F 16.0 °F 62% 29.55 in - WSW 8.1 mph - N/A   Unknown
10:00 PM 28.9 °F 21.9 °F 15.4 °F 57% 29.52 in - West 6.9 mph - N/A   Unknown
11:00 PM 27.9 °F 20.6 °F 17.1 °F 64% 29.49 in - West 6.9 mph - N/A   Unknown